Flag for Canada Weather past 2 weeks in Laval, Quebec, Canada

Now
30 °F

Passing clouds.


Feels Like: 23 °F
Forecast: 19 / 35 °F
Wind: 7 mph from West

Location: Montreal / Mirabel

Current Time: Apr 1, 2015 at 2:03:26 PM

Latest Report: Apr 1, 2015 at 1:00 PM


Visibility: 45 mi

Pressure: 30.11 "Hg

Humidity: 34%

Dew point: 5 °F

Location of LavalLocation

Historic Weather in Laval — Graph

°F

Laval temperature yesterday

Maximum temperature yesterday: 36 °F (at 5:00 PM)
Minimum temperature yesterday: 19 °F (at 8:00 AM)
Average temperature yesterday: 29 °F

Past Weeks' High & Low Weather Summary

 TemperatureHumidityPressure
High41 °F (Mar 25, 4:00 PM)100% (Mar 21, 3:00 PM)30.42 "Hg (Mar 21, 3:00 PM)
Low0 °F (Mar 23, 7:00 AM)19% (Mar 19, 6:00 PM)29.49 "Hg (Mar 30, 2:00 PM)
Average24 °F56%30.02 "Hg
* Reported Mar 17 1:00 PM — Apr 1 1:00 PM, Laval, Weather by CustomWeather, © 2015

Note: Actual official high and low records may vary slightly from our data, if they occured in-between our weather recording intervals... More about our weather records

Advertising

Laval weather history for previous 24 hours

 ConditionsComfort  
Time TempWeatherWind HumidityBarometerVisibility
1:00 PM
Wed, Apr 1
30 °FPassing clouds.7 mph34%30.11 "Hg45 mi
12:00 PM27 °FScattered clouds.8 mph33%30.14 "Hg45 mi
11:00 AM25 °FScattered clouds.2 mph36%30.14 "Hg45 mi
10:00 AM23 °FScattered clouds.3 mph36%30.13 "Hg45 mi
9:00 AM21 °FPartly sunny.7 mph35%30.12 "Hg45 mi
8:00 AM21 °FPartly sunny.5 mph38%30.11 "Hg45 mi
7:00 AM16 °FPassing clouds.6 mph48%30.07 "Hg45 mi
6:00 AM18 °FPassing clouds.6 mph45%30.02 "Hg25 mi
5:00 AM18 °FClear.5 mph49%29.99 "Hg25 mi
4:00 AM19 °FClear.2 mph49%29.97 "Hg25 mi
3:00 AM21 °FClear.7 mph45%29.95 "Hg25 mi
2:00 AM21 °FClear.6 mph49%29.93 "Hg25 mi
1:00 AM21 °FClear.3 mph42%29.91 "Hg25 mi
12:00 AM25 °FClear.6 mph36%29.90 "Hg25 mi
11:00 PM
Tue, Mar 31
27 °FClear.3 mph33%29.89 "Hg25 mi
10:00 PM27 °FClear.5 mph33%29.89 "Hg25 mi
9:00 PM28 °FPassing clouds.3 mph40%29.89 "Hg25 mi
8:00 PM30 °FPassing clouds.5 mph29%29.86 "Hg25 mi
7:00 PM34 °FScattered clouds.8 mph21%29.84 "Hg45 mi
6:00 PM36 °FScattered clouds.8 mph25%29.82 "Hg45 mi
5:00 PM36 °FScattered clouds.7 mph30%29.80 "Hg45 mi
4:00 PM34 °FPassing clouds.9 mph32%29.78 "Hg45 mi
3:00 PM34 °FPassing clouds.10 mph32%29.78 "Hg45 mi
2:00 PM32 °FScattered clouds.13 mph34%29.78 "Hg45 mi
Weather by CustomWeather, © 2015

See weather overviewHow to use our weather pages